Weather History for Ely, MN

Change the Weather History Date:

Friday, January 3, 2014

  Actual Average Record
Temperature  
Mean Temperature -9 °F -  
Max Temperature 14 °F 16 °F 37 °F (2007)
Min Temperature -32 °F 0 °F -32 °F (2014)
Degree Days  
Heating Degree Days 74    
Moisture  
Dew Point -5 °F    
Average Humidity 78    
Maximum Humidity 100    
Minimum Humidity 59    
Precipitation  
Precipitation 0.13 in - - ()
Sea Level Pressure  
Sea Level Pressure 29.65 in    
Wind  
Wind Speed 6 mph (South)    
Max Wind Speed 17 mph    
Max Gust Speed 28 mph    
Visibility 5 miles    
Events Snow    
Averages and records for this station are not official NWS values.
T = Trace of Precipitation, MM = Missing Value Source: NWS Daily Summary

Daily Weather History Graph

Daily Weather History Graph

Search for Another Location

Airport:

Trip Planner

Search our weather history database for the weather conditions in past years. The results will help you decide how hot, cold, wet, or windy it might be!

Date:

Astronomy

Jan. 03, 2014 Rise Set
Actual Time 7:56 AM CST 4:27 PM CST
Civil Twilight 7:20 AM CST 5:03 PM CST
Nautical Twilight 6:41 AM CST 5:42 PM CST
Astronomical Twilight 6:03 AM CST 6:20 PM CST
Moon 9:09 AM CST (1/3) 7:52 PM CST (1/3)
Length of Visible Light 9h 43m
Length of Day
8h 31m
Waxing Crescent, 8% of the Moon is Illuminated
Jan 3
Waxing Crescent
Jan 7
First Quarter
Jan 15
Full
Jan 23
Last Quarter
Jan 30
New

Hourly Weather History & Observations

Time (CST) Temp. Windchill Dew Point Humidity Pressure Visibility Wind Dir Wind Speed Gust Speed Precip Events Conditions
12:12 AM -32.8 °F - -38.2 °F 75% 30.17 in 10.0 mi Calm Calm - N/A   Clear
12:33 AM -32.8 °F - -38.2 °F 75% 30.16 in 10.0 mi Calm Calm - N/A   Clear
12:53 AM -31.0 °F - -38.2 °F 68% 30.15 in 10.0 mi Calm Calm - N/A   Clear
1:13 AM -32.8 °F - -38.2 °F 75% 30.14 in 10.0 mi Calm Calm - N/A   Clear
1:33 AM -31.0 °F - -36.4 °F 75% 30.13 in 10.0 mi Calm Calm - N/A   Clear
1:52 AM -29.2 °F - -34.6 °F 75% 30.13 in 10.0 mi Calm Calm - N/A   Clear
2:13 AM -27.4 °F - -32.8 °F 75% 30.13 in 10.0 mi Calm Calm - N/A   Clear
2:33 AM -20.2 °F - -27.4 °F 69% 30.12 in 10.0 mi Calm Calm - N/A   Clear
2:52 AM -20.2 °F - -27.4 °F 69% 30.11 in 10.0 mi Calm Calm - N/A   Clear
3:13 AM -11.2 °F -23.0 °F -18.4 °F 70% 30.09 in 10.0 mi South 4.6 mph - N/A   Clear
3:33 AM -9.4 °F -24.3 °F -16.6 °F 71% 30.07 in 10.0 mi South 6.9 mph - N/A   Clear
3:52 AM -7.6 °F -22.1 °F -18.4 °F 59% 30.06 in 10.0 mi South 6.9 mph - N/A   Clear
4:13 AM -7.6 °F -23.4 °F -18.4 °F 59% 30.04 in 10.0 mi South 8.1 mph - N/A   Scattered Clouds
4:33 AM -7.6 °F -23.4 °F -16.6 °F 65% 30.03 in 10.0 mi South 8.1 mph - N/A   Mostly Cloudy
4:52 AM -7.6 °F -22.1 °F -16.6 °F 65% 30.00 in 10.0 mi South 6.9 mph - N/A   Scattered Clouds
5:12 AM -5.8 °F -21.2 °F -16.6 °F 60% 29.98 in 10.0 mi South 8.1 mph - N/A   Mostly Cloudy
5:33 AM -5.8 °F -21.2 °F -16.6 °F 60% 29.97 in 10.0 mi South 8.1 mph - N/A   Overcast
5:52 AM -5.8 °F -23.4 °F -14.8 °F 65% 29.96 in 10.0 mi South 10.4 mph - N/A   Overcast
6:13 AM -5.8 °F -23.4 °F -14.8 °F 65% 29.95 in 10.0 mi South 10.4 mph 17.3 mph N/A   Overcast
6:32 AM -5.8 °F -23.4 °F -14.8 °F 65% 29.93 in 10.0 mi South 10.4 mph - N/A   Overcast
6:53 AM -4.0 °F -23.7 °F -13.0 °F 65% 29.91 in 10.0 mi South 13.8 mph 18.4 mph N/A   Overcast
7:13 AM -2.2 °F -19.9 °F -11.2 °F 66% 29.88 in 10.0 mi South 11.5 mph 19.6 mph N/A   Overcast
7:32 AM -2.2 °F -20.7 °F -11.2 °F 66% 29.86 in 10.0 mi South 12.7 mph 19.6 mph N/A   Overcast
7:53 AM -2.2 °F -20.7 °F -9.4 °F 71% 29.85 in 10.0 mi South 12.7 mph 19.6 mph N/A   Overcast
8:13 AM -2.2 °F -21.5 °F -9.4 °F 71% 29.83 in 10.0 mi South 13.8 mph 19.6 mph N/A Snow Light Snow
8:32 AM -0.4 °F -19.2 °F -9.4 °F 66% 29.81 in 7.0 mi South 13.8 mph 18.4 mph N/A   Overcast
8:53 AM -0.4 °F -20.5 °F -9.4 °F 66% 29.78 in 4.0 mi South 16.1 mph 25.3 mph N/A Snow Light Snow
9:12 AM -0.4 °F -18.4 °F -7.6 °F 72% 29.75 in 5.0 mi South 12.7 mph 16.1 mph N/A Snow Light Snow
9:33 AM 1.4 °F -17.6 °F -5.8 °F 72% 29.72 in 4.0 mi South 15.0 mph 23.0 mph N/A Snow Light Snow
9:53 AM 1.4 °F -18.2 °F -4.0 °F 78% 29.70 in 1.8 mi South 16.1 mph 25.3 mph N/A Snow Light Snow
10:12 AM 1.4 °F -18.8 °F -2.2 °F 85% 29.67 in 1.8 mi South 17.3 mph 23.0 mph N/A Snow Light Snow
10:33 AM 3.2 °F -15.9 °F -2.2 °F 78% 29.66 in 1.0 mi South 16.1 mph 21.9 mph N/A Snow Light Snow
10:53 AM 3.2 °F -13.9 °F -2.2 °F 78% 29.65 in 1.2 mi South 12.7 mph 18.4 mph N/A Snow Light Snow
11:12 AM 3.2 °F -14.6 °F -2.2 °F 78% 29.63 in 0.8 mi South 13.8 mph 25.3 mph N/A Snow Light Snow
11:33 AM 3.2 °F -15.3 °F -2.2 °F 78% 29.59 in 1.0 mi South 15.0 mph 27.6 mph N/A Snow Light Snow
11:53 AM 3.2 °F -15.3 °F -2.2 °F 78% 29.57 in 1.0 mi South 15.0 mph 25.3 mph N/A Snow Light Snow
12:13 PM 3.2 °F -16.5 °F -0.4 °F 85% 29.56 in 1.0 mi South 17.3 mph 21.9 mph N/A Snow Light Snow
12:33 PM 3.2 °F -15.3 °F -0.4 °F 85% 29.54 in 0.8 mi South 15.0 mph 23.0 mph N/A Snow Light Snow
12:53 PM 5.0 °F -10.8 °F -0.4 °F 78% 29.51 in 1.0 mi South 11.5 mph 21.9 mph N/A Snow Light Snow
1:13 PM 5.0 °F -13.0 °F -0.4 °F 78% 29.50 in 1.0 mi South 15.0 mph 20.7 mph N/A Snow Light Snow
1:33 PM 5.0 °F -11.6 °F 1.4 °F 85% 29.48 in 1.0 mi South 12.7 mph 20.7 mph N/A Snow Light Snow
1:53 PM 6.8 °F -11.3 °F 1.4 °F 79% 29.46 in 1.2 mi South 16.1 mph 23.0 mph N/A Snow Light Snow
2:12 PM 6.8 °F -11.3 °F 1.4 °F 79% 29.43 in 1.8 mi South 16.1 mph 21.9 mph N/A Snow Light Snow
2:33 PM 6.8 °F -7.8 °F 1.4 °F 79% 29.43 in 1.0 mi South 10.4 mph 21.9 mph N/A Snow Light Snow
2:49 PM 6.8 °F -10.7 °F 1.4 °F 79% 29.42 in 1.0 mi SSW 15.0 mph 25.3 mph N/A Snow Light Snow
3:13 PM 6.8 °F -10.0 °F 3.2 °F 85% 29.41 in 0.8 mi South 13.8 mph 18.4 mph N/A Snow Light Snow
3:33 PM 6.8 °F -9.3 °F 3.2 °F 85% 29.40 in 1.0 mi South 12.7 mph 21.9 mph N/A Snow Light Snow
3:53 PM 8.6 °F -4.7 °F 3.2 °F 79% 29.39 in 1.0 mi South 9.2 mph 19.6 mph N/A Snow Light Snow
4:13 PM 8.6 °F -7.7 °F 3.2 °F 79% 29.38 in 1.5 mi South 13.8 mph 19.6 mph N/A Snow Light Snow
4:33 PM 8.6 °F -6.3 °F 3.2 °F 79% 29.38 in 1.8 mi SSW 11.5 mph 16.1 mph N/A Snow Light Snow
4:52 PM 8.6 °F -4.7 °F 5.0 °F 85% 29.38 in 2.0 mi SSW 9.2 mph - N/A Snow Light Snow
5:13 PM 8.6 °F -2.6 °F 5.0 °F 85% 29.36 in 1.8 mi SSW 6.9 mph - N/A Snow Light Snow
5:33 PM 8.6 °F -4.7 °F 6.8 °F 92% 29.36 in 1.8 mi SSW 9.2 mph - 0.01 in Snow Light Snow
5:52 PM 8.6 °F 0.1 °F 6.8 °F 92% 29.35 in 1.2 mi South 4.6 mph - 0.01 in Snow Light Snow
6:13 PM 10.4 °F 0.8 °F 6.8 °F 85% 29.35 in 1.5 mi SSW 5.8 mph - 0.01 in Snow Light Snow
6:32 PM 10.4 °F 2.2 °F 6.8 °F 85% 29.36 in 1.2 mi SW 4.6 mph - 0.03 in Snow Light Snow
6:53 PM 10.4 °F - 8.6 °F 92% 29.37 in 1.2 mi Calm Calm - 0.06 in Snow Light Snow
7:13 PM 10.4 °F - 8.6 °F 92% 29.36 in 1.0 mi Calm Calm - 0.03 in Snow Snow
7:32 PM 10.4 °F - 8.6 °F 92% 29.36 in 1.0 mi Calm Calm - 0.04 in Snow Light Snow
7:53 PM 10.4 °F 4.0 °F 8.6 °F 92% 29.35 in 1.0 mi South 3.5 mph - 0.04 in Snow Snow
8:13 PM 10.4 °F 4.0 °F 8.6 °F 92% 29.34 in 1.8 mi South 3.5 mph - 0.01 in Snow Light Snow
8:32 PM 12.2 °F - 8.6 °F 85% 29.33 in 1.8 mi Calm Calm - 0.01 in Snow Light Snow
8:53 PM 12.2 °F - 8.6 °F 85% 29.34 in 1.8 mi Calm Calm - 0.01 in Snow Light Snow
9:12 PM 12.2 °F - 10.4 °F 92% 29.33 in 1.0 mi Calm Calm - N/A Snow Light Snow
9:33 PM 12.2 °F 6.1 °F 10.4 °F 92% 29.33 in 4.0 mi SSW 3.5 mph - N/A Snow Light Snow
9:53 PM 12.2 °F 2.9 °F 10.4 °F 92% 29.32 in 5.0 mi South 5.8 mph - N/A Snow Light Snow
10:12 PM 12.2 °F 4.3 °F 12.2 °F 100% 29.31 in 4.0 mi SSW 4.6 mph - N/A Snow Light Snow
10:33 PM 12.2 °F 2.9 °F 10.4 °F 92% 29.33 in 1.8 mi SW 5.8 mph - N/A Snow Light Snow
10:52 PM 14.0 °F - 10.4 °F 86% 29.33 in 1.5 mi Calm Calm - 0.01 in Snow Light Snow
11:13 PM 14.0 °F 8.2 °F 12.2 °F 93% 29.32 in 2.5 mi SSW 3.5 mph - N/A Snow Light Snow
11:33 PM 14.0 °F 8.2 °F 12.2 °F 93% 29.33 in 1.8 mi SW 3.5 mph - N/A Snow Light Snow
11:53 PM 14.0 °F 8.2 °F 12.2 °F 93% 29.33 in 1.2 mi SW 3.5 mph - N/A Snow Light Snow